Temp
16 17 16 15 15 14 16 18 19 18 16 17 17 16 15 15 13 13 11 10 9 8 7 6 5 5 6 6 5 5 5 4 4 3 2 3 3 2 2 2 1 0 0 -0
16 15 16 16 15 16 16 14 16 16 16 15 15 14 14 14 13 13 12 10 9 7 6 5 5 5 5 5 5 5 4 3 2 2 2 2 2 1 1 1 0 0 -1 -1
16 15 16 17 15 14 16 14 17 16 19 14 14 14 14 13 13 12 11 10 8 7 6 5 5 5 5 5 4 4 3 2 2 1 2 1 1 1 0 -0 -0 -1 -2 -2
14 15 15 17 15 15 15 14 14 15 14 14 13 12 12 11 12 11 10 8 7 6 5 5 5 5 5 4 3 3 2 2 1 1 1 1 1 0 -0 -1 -2 -2 -2 -2
14 14 16 16 14 14 15 15 13 13 12 12 12 12 12 10 8 8 8 6 5 5 5 4 5 4 4 3 3 2 1 1 0 0 0 0 -0 -0 -1 -2 -2 -2 -2 -3
11 15 17 17 16 15 16 16 13 13 12 12 12 13 12 9 7 5 5 5 4 5 4 4 4 4 3 2 2 1 1 0 0 0 -0 -0 -1 -1 -1 -2 -3 -3 -3 -4
13 14 14 15 15 15 16 17 12 12 11 11 12 12 9 7 6 5 4 4 5 5 4 4 3 3 2 2 1 1 0 0 0 -0 -0 -1 -1 -1 -2 -3 -3 -4 -4 -4
11 13 15 13 15 16 13 10 11 11 11 11 10 8 7 6 5 4 4 4 4 3 3 3 3 2 1 1 1 0 -0 -0 -0 -0 -1 -1 -1 -2 -3 -4 -4 -4 -4 -4
13 13 11 11 12 10 11 10 11 10 10 10 9 9 7 6 5 4 4 3 3 4 3 2 2 1 1 0 -0 -0 -0 -0 -1 -1 -1 -1 -2 -3 -4 -4 -4 -4 -4 -3
12 12 11 10 10 10 11 10 9 9 9 9 9 8 7 5 4 3 3 3 3 3 2 1 1 1 0 -0 -1 -1 -1 -1 -1 -1 -2 -3 -3 -4 -5 -5 -5 -4 -4 -3
10 10 10 11 11 8 8 7 7 7 8 7 7 6 5 4 3 3 3 3 3 2 2 1 0 0 -0 -0 -1 -1 -1 -1 -2 -3 -3 -4 -4 -5 -5 -4 -4 -3 -3 -3
11 10 10 10 8 8 8 7 6 7 6 5 5 4 4 3 3 2 2 2 2 1 1 -0 -0 -0 -1 -1 -1 -2 -2 -3 -3 -4 -4 -5 -5 -5 -5 -5 -4 -4 -4 -4
10 8 7 6 6 6 5 4 3 3 4 3 3 3 3 2 2 3 2 2 1 1 0 -0 -1 -1 -1 -1 -2 -2 -3 -3 -4 -4 -5 -5 -5 -5 -5 -5 -5 -5 -5 -4
6 7 7 7 7 4 3 3 4 3 3 3 3 3 3 3 3 1 1 1 0 -0 -0 -1 -1 -1 -1 -2 -2 -3 -3 -4 -5 -5 -5 -5 -5 -5 -5 -5 -5 -5 -5 -5
6 5 6 3 2 2 1 1 2 2 2 2 4 4 3 1 0 0 0 -0 -0 -0 -1 -1 -1 -1 -2 -2 -3 -4 -4 -5 -5 -5 -5 -5 -5 -5 -5 -5 -5 -5 -5 -5
1 1 2 3 2 1 -0 -0 3 2 1 1 2 3 2 1 1 -0 -1 -1 -1 -1 -1 -1 -2 -2 -2 -3 -4 -4 -4 -5 -5 -5 -6 -5 -6 -6 -6 -6 -6 -5 -6 -6
4 2 -0 -2 -0 -0 0 2 2 2 1 1 0 0 -0 -1 -1 -1 -1 -1 -1 -1 -2 -2 -2 -2 -3 -3 -4 -4 -5 -6 -6 -6 -6 -6 -6 -6 -6 -6 -6 -6 -6 -7
5 3 4 4 1 2 1 1 1 1 1 0 0 -0 -1 -2 -2 -1 -1 -2 -2 -2 -2 -2 -2 -3 -3 -4 -5 -5 -6 -6 -6 -6 -6 -6 -6 -5 -6 -6 -6 -7 -7 -7
3 2 2 2 2 1 1 1 1 1 1 0 -1 -2 -1 -1 -1 -1 -2 -2 -3 -3 -2 -2 -3 -4 -4 -5 -5 -6 -6 -6 -6 -6 -6 -6 -7 -6 -7 -7 -7 -7 -8 -8
1 2 2 2 2 2 1 1 1 1 0 0 -1 -2 -3 -2 -2 -2 -3 -3 -3 -2 -3 -3 -4 -4 -5 -5 -6 -6 -6 -6 -7 -7 -7 -6 -7 -7 -7 -8 -8 -8 -8 -8
1 1 1 1 1 1 1 1 0 -0 -0 -1 -1 -2 -2 -2 -2 -3 -4 -4 -2 -3 -4 -4 -5 -5 -6 -6 -6 -5 -6 -6 -7 -7 -8 -8 -8 -8 -8 -9 -9 -9 -9 -9
-0 0 0 1 0 0 1 0 -0 -1 -1 -1 -2 -2 -3 -3 -3 -3 -4 -4 -3 -4 -5 -5 -6 -6 -6 -5 -6 -6 -7 -7 -8 -8 -9 -9 -9 -9 -10 -10 -10 -9 -9 -9
0 0 1 -0 -0 -0 -0 -0 -1 -1 -2 -2 -2 -3 -3 -3 -4 -5 -5 -4 -5 -6 -6 -6 -6 -6 -6 -6 -6 -7 -8 -8 -9 -9 -9 -10 -10 -10 -10 -10 -9 -10 -10 -10
0 -0 -0 -0 -1 -1 -2 -2 -2 -2 -2 -3 -3 -3 -3 -4 -4 -5 -5 -6 -6 -7 -7 -7 -7 -6 -6 -7 -8 -8 -9 -10 -10 -10 -10 -10 -10 -10 -10 -10 -10 -10 -10 -10
-0 -1 -2 -2 -3 -3 -3 -4 -4 -4 -4 -5 -5 -5 -5 -6 -6 -6 -6 -6 -7 -8 -8 -7 -8 -8 -8 -9 -9 -10 -10 -10 -10 -10 -10 -10 -10 -10 -10 -10 -10 -10 -10 -10
-2 -3 -3 -3 -3 -3 -4 -4 -5 -5 -5 -6 -6 -6 -6 -7 -7 -7 -7 -8 -8 -8 -8 -8 -8 -9 -10 -10 -10 -10 -10 -10 -10 -11 -10 -10 -11 -10 -10 -11 -11 -11 -11 -12
-3 -4 -4 -5 -5 -4 -4 -5 -5 -6 -6 -6 -6 -7 -7 -7 -7 -8 -8 -8 -8 -9 -9 -9 -9 -9 -10 -10 -10 -11 -11 -11 -11 -11 -10 -11 -11 -11 -12 -12 -12 -12 -12 -12
Height
735 730 732 740 744 753 751 746 749 748 757 746 744 745 747 748 753 757 762 768 772 776 781 784 787 788 789 790 790 789 787 787 786 785 784 782 779 776 773 770 766 762 758 753
737 738 736 739 741 742 742 751 749 749 748 741 743 746 749 750 752 755 759 765 769 774 778 782 786 787 788 789 788 788 788 788 787 784 782 779 776 773 770 766 763 758 753 750
741 739 738 742 736 740 736 742 733 744 725 740 745 747 749 751 752 754 757 761 766 771 777 781 784 786 787 787 787 788 788 788 786 784 779 776 773 770 767 762 758 754 751 747
748 742 752 721 722 722 726 732 734 733 735 736 742 747 750 751 751 755 757 761 766 771 777 781 784 785 786 786 787 787 787 785 785 781 776 774 770 767 763 759 755 752 748 743
742 745 730 722 725 727 724 730 731 734 738 740 744 746 751 754 756 758 758 761 766 771 776 780 782 783 785 786 786 786 785 784 782 778 775 771 768 764 760 756 752 748 745 739
754 737 729 712 713 715 714 727 726 728 734 739 743 748 752 756 757 760 761 763 768 773 776 779 781 783 784 784 784 784 783 781 779 777 774 770 766 762 758 754 749 744 739 736
735 734 725 713 714 714 727 720 725 730 736 741 744 748 754 756 759 761 764 767 771 774 777 779 781 782 782 783 782 782 780 779 777 774 771 767 763 758 754 750 745 740 734 730
740 735 726 714 714 718 721 728 730 735 738 742 746 751 755 758 761 764 767 770 773 775 777 779 780 780 781 781 780 780 779 777 774 771 767 763 758 754 751 747 742 737 730 724
719 719 719 719 717 721 722 726 732 735 739 742 747 752 756 759 762 765 768 771 773 774 776 778 778 779 779 779 779 777 775 773 771 767 763 759 755 751 748 744 740 734 728 721
717 720 721 722 722 723 725 729 733 735 739 742 747 751 755 760 763 766 768 770 771 773 775 777 776 777 778 777 776 774 772 770 766 761 758 756 753 750 746 742 736 731 725 719
727 726 725 723 723 727 731 733 737 739 742 746 750 754 756 759 760 763 766 768 769 771 773 775 776 776 775 774 772 771 768 765 761 758 756 753 750 747 743 739 735 729 723 718
714 712 714 720 725 728 732 737 740 743 747 750 751 754 755 758 759 761 763 766 769 771 773 774 774 773 773 772 770 767 764 760 758 756 753 751 746 741 739 735 730 726 721 715
707 713 718 721 726 729 735 740 743 745 747 750 752 753 755 756 758 761 764 767 769 770 771 772 771 771 770 769 767 764 761 758 756 754 750 747 742 737 730 726 724 720 715 710
711 712 723 724 729 733 735 740 743 747 749 751 752 753 754 757 759 761 764 766 767 769 769 769 769 768 767 765 763 761 760 758 755 750 747 743 739 735 730 723 716 712 709 704
714 712 712 723 731 736 738 742 745 747 749 750 750 752 754 756 758 760 763 765 766 767 767 766 765 764 763 761 760 758 757 753 750 747 743 740 736 731 726 721 715 708 702 697
721 721 722 726 733 738 740 742 743 746 747 748 750 752 753 755 757 759 761 763 764 764 764 763 762 761 760 759 757 755 752 750 748 744 739 735 731 726 722 717 712 706 700 694
717 728 731 735 735 737 738 738 740 742 744 746 748 749 751 754 756 758 759 760 761 761 761 760 759 759 758 756 753 751 748 746 743 740 736 732 727 723 718 713 708 703 697 692
704 710 716 720 728 732 735 737 739 740 742 744 746 748 750 752 753 755 757 758 759 759 759 759 758 756 754 752 750 747 744 741 739 735 732 728 723 719 714 710 705 700 694 689
707 713 718 722 726 729 732 734 736 738 740 741 743 745 747 749 751 753 755 756 757 757 756 755 754 753 751 748 745 742 740 736 734 731 727 723 718 714 710 706 702 697 692 686
713 716 719 722 726 728 731 733 735 736 737 738 741 743 745 747 749 751 752 753 754 753 752 752 750 748 746 743 740 738 735 732 729 726 723 718 714 710 706 703 699 694 688 683
715 717 720 724 727 729 731 732 733 734 736 737 739 741 743 745 747 749 750 751 751 750 749 748 746 744 741 738 736 733 731 728 725 721 718 714 709 706 703 699 695 690 684 679
716 719 721 724 727 728 729 730 731 733 734 735 737 739 742 744 746 747 748 749 747 747 746 744 742 739 737 734 731 729 727 723 720 716 713 709 706 702 699 694 690 685 680 676
716 719 721 723 725 726 728 729 730 731 732 734 736 738 740 742 743 744 745 745 745 744 742 740 737 735 732 730 727 724 721 718 714 711 708 705 701 698 694 689 685 681 676 671
717 719 720 722 724 725 727 728 729 730 732 734 736 737 739 740 742 742 743 743 742 740 738 735 733 731 728 725 722 719 716 713 710 706 703 700 696 693 689 684 680 676 672 667
715 717 720 722 724 726 727 729 730 731 732 734 735 737 739 740 741 742 741 740 737 735 732 730 728 726 723 720 717 714 711 708 704 701 698 695 691 687 683 679 676 672 668 664
716 718 721 723 724 725 726 727 729 731 732 735 737 738 739 739 739 739 737 736 734 731 729 726 723 721 718 715 712 709 706 702 699 695 692 689 685 681 678 675 671 667 664 660
716 718 721 723 725 726 727 728 730 733 735 736 737 738 738 738 737 736 735 732 730 727 725 722 719 716 713 711 707 703 700 696 693 690 687 683 679 676 672 669 666 663 660 656
Wind_Speed
1 2 6 6 8 11 10 10 10 7 8 6 5 5 5 5 6 6 7 9 11 11 10 12 11 11 9 7 5 6 8 8 10 10 11 14 17 19 20 21 22 22 23 23
1 2 4 5 6 12 11 4 7 5 7 4 3 5 4 4 5 5 5 9 10 11 13 12 12 10 7 5 6 7 7 8 8 10 13 15 18 21 22 22 23 25 24 22
3 2 5 4 10 11 7 5 11 11 9 7 4 6 5 5 6 5 5 8 10 11 12 13 12 9 6 5 4 5 6 8 12 12 15 18 21 22 22 24 26 23 23 24
3 2 2 5 1 6 8 4 5 3 5 6 7 5 5 3 4 4 4 6 9 12 14 14 11 8 6 3 3 4 7 10 11 14 18 20 22 23 24 23 22 22 23 24
4 4 4 1 4 6 7 5 6 8 6 6 6 4 4 3 4 2 3 5 11 18 17 14 10 7 4 2 3 5 8 11 13 16 18 21 23 24 24 21 24 24 23 24
2 4 6 1 2 4 4 3 7 8 8 8 5 3 2 2 3 6 9 13 17 16 16 12 9 5 3 1 3 6 10 12 14 16 19 21 22 23 24 25 24 26 26 22
3 3 5 4 3 3 4 3 5 5 6 6 4 3 4 4 5 8 10 15 16 15 12 9 7 4 2 1 5 8 11 13 15 18 20 20 23 24 27 27 24 25 25 23
3 2 6 3 4 6 3 4 6 5 4 5 6 5 4 5 5 6 10 13 13 13 10 7 5 3 1 4 7 10 12 14 17 20 21 23 23 26 27 24 23 24 25 24
6 3 1 2 2 3 3 6 4 6 5 6 7 5 6 4 5 6 11 12 11 11 10 7 4 2 3 5 8 10 14 17 19 22 23 23 24 24 22 20 20 23 22 23
3 0 2 4 4 5 4 6 6 5 6 5 6 6 5 5 6 7 13 12 11 11 8 5 3 1 3 6 9 12 15 19 22 24 23 24 25 21 19 21 21 21 22 23
2 2 4 2 3 6 7 7 8 6 4 5 6 4 4 4 5 9 12 12 10 8 6 5 2 1 4 7 10 13 17 20 22 23 24 24 21 19 19 19 19 25 25 25
5 8 4 5 6 6 7 6 5 6 4 3 3 5 4 4 7 11 11 10 9 8 5 3 1 3 5 8 11 14 17 17 20 18 20 20 20 22 17 19 22 24 25 25
4 5 3 8 7 4 7 6 4 6 4 5 3 5 5 3 5 7 9 10 9 7 3 1 3 5 8 11 13 15 17 19 17 18 18 18 21 21 23 23 21 21 22 25
6 11 6 2 5 6 8 7 8 6 5 5 5 4 5 4 9 10 10 9 8 5 2 2 5 8 11 13 14 16 17 19 18 19 18 20 19 20 22 22 22 23 24 26
2 4 7 9 7 6 6 6 5 4 4 3 3 5 8 8 9 11 10 8 6 2 0 4 8 11 13 12 14 15 18 20 21 19 18 19 21 21 20 21 22 24 26 25
5 7 8 7 7 6 5 4 5 4 5 4 5 7 7 8 10 10 9 6 4 1 4 7 10 12 12 13 15 19 23 20 19 19 18 19 19 19 20 21 22 23 24 25
10 4 3 3 6 6 6 4 4 4 4 6 8 9 10 10 9 8 6 3 2 2 5 8 12 12 14 15 17 21 22 22 18 19 17 19 19 20 21 21 23 22 24 25
6 5 6 8 8 6 5 5 5 6 6 9 8 9 10 10 7 7 5 3 3 6 7 8 10 14 15 16 19 20 21 20 17 18 19 18 20 22 21 21 22 22 24 25
7 11 9 8 9 7 5 4 6 7 7 8 9 10 11 10 9 6 4 3 4 7 10 11 13 14 16 19 18 20 19 21 20 19 19 21 21 20 21 20 20 22 23 24
7 9 12 10 9 6 5 5 4 4 4 6 6 7 8 8 7 6 5 6 7 8 10 13 14 17 20 21 17 17 21 20 20 20 20 21 21 20 20 21 21 22 23 23
8 8 8 8 6 5 5 4 5 4 5 8 10 9 9 7 7 5 4 5 7 8 10 13 16 19 20 18 18 21 22 21 20 19 20 20 20 20 20 20 21 22 23 23
5 5 5 6 5 3 1 2 3 3 4 6 6 7 7 6 6 6 6 8 9 9 13 16 18 18 18 20 21 23 21 20 20 19 18 19 19 20 21 21 22 23 22 24
5 5 5 6 4 3 2 0 2 4 5 6 8 8 7 5 4 2 3 4 10 13 15 18 17 17 19 20 23 24 24 22 20 19 19 21 21 21 21 21 22 23 25 25
5 5 4 4 4 3 2 2 1 3 4 5 5 5 4 2 1 2 3 9 12 13 15 17 17 19 21 22 23 23 22 21 21 23 24 22 22 20 21 23 23 24 25 25
5 6 5 6 4 2 3 6 8 8 9 9 8 6 4 2 2 6 11 13 15 15 18 19 19 19 20 22 23 23 22 23 23 21 20 22 23 22 23 24 23 23 24 24
5 6 7 5 5 6 7 8 10 8 9 9 6 4 3 4 7 9 11 13 14 15 18 20 21 19 21 22 21 22 23 23 23 23 21 23 23 23 23 24 24 23 22 24
10 10 12 10 8 8 10 11 12 8 7 5 4 3 6 8 10 12 13 15 17 18 20 21 21 22 20 23 22 24 24 25 22 22 23 24 25 24 24 23 24 24 24 25
Wind_Direction
7 225 188 177 178 179 197 203 204 214 212 228 185 154 156 154 162 157 164 164 166 159 157 154 144 138 130 111 85 53 38 26 17 5 360 357 356 353 352 352 348 345 343 342
80 126 172 203 203 196 205 166 240 165 238 190 127 112 117 140 152 168 174 171 166 160 160 157 155 151 137 103 61 34 20 10 355 359 356 354 352 351 350 346 345 344 343 336
211 161 143 284 206 191 201 194 203 210 228 160 137 136 136 123 120 137 167 169 165 160 159 160 160 149 124 87 48 26 9 359 347 348 355 353 349 346 344 343 343 341 337 334
148 115 199 247 76 189 176 180 187 113 148 152 144 124 110 62 84 70 123 149 148 146 153 153 148 135 116 85 33 7 356 352 342 349 353 346 343 343 342 341 336 332 331 329
151 193 286 212 199 154 172 222 188 151 132 121 124 102 67 61 58 67 94 136 144 154 150 147 141 135 138 99 28 356 349 344 346 350 342 341 340 339 337 333 331 329 325 322
175 159 205 248 173 172 134 276 173 143 137 136 136 125 216 55 85 78 98 126 135 143 141 140 141 145 136 82 6 351 342 341 343 342 339 337 336 334 334 334 326 322 320 318
166 209 287 226 160 143 129 228 122 124 129 127 115 143 125 110 74 98 114 130 139 142 146 147 146 148 136 26 358 339 337 335 336 338 336 337 335 336 333 328 323 320 315 316
111 139 255 153 105 165 164 54 115 110 118 112 109 103 96 97 121 126 132 141 150 145 145 147 150 148 96 1 340 332 326 330 335 337 338 337 337 333 331 326 319 316 315 321
176 211 290 354 350 78 106 117 126 118 126 122 122 129 150 162 157 161 166 162 163 157 152 154 137 74 10 339 324 324 330 333 334 336 338 339 335 329 324 322 315 315 319 320
118 347 49 85 75 84 99 104 103 102 118 115 124 132 134 148 166 169 168 162 163 160 156 153 135 0 318 323 330 332 328 332 336 337 336 334 332 326 316 312 314 316 316 318
69 47 77 342 107 122 97 95 93 72 83 118 134 148 154 166 166 165 165 164 160 152 153 161 199 290 333 339 332 327 329 334 336 334 331 325 319 314 311 310 311 312 314 315
211 190 148 171 156 131 117 113 113 126 123 94 122 156 145 158 167 160 152 152 152 154 168 188 313 344 347 339 333 331 331 334 330 320 316 316 313 315 315 310 313 312 312 314
172 121 74 110 102 92 117 128 113 109 108 141 136 151 149 136 133 144 154 158 167 173 185 267 331 346 349 338 333 336 330 324 319 311 314 315 319 316 315 317 315 313 316 318
135 116 74 149 152 127 120 123 121 129 139 132 129 112 126 144 152 160 170 175 169 176 212 327 338 345 344 338 336 330 323 321 314 318 319 316 311 309 311 311 316 318 319 320
102 6 126 115 107 107 111 129 141 152 159 153 153 191 189 171 168 178 175 171 176 185 323 338 338 341 338 335 328 322 322 322 322 316 309 310 311 309 309 310 312 313 317 320
86 69 93 113 129 136 124 170 165 172 171 174 185 195 188 178 173 173 176 182 188 201 341 334 328 332 330 326 323 324 325 322 315 310 309 311 310 311 312 312 312 314 316 318
118 113 116 120 160 166 192 180 175 169 169 191 206 197 181 172 168 175 183 193 231 296 318 320 322 326 324 327 325 320 319 318 314 312 310 311 311 310 309 311 311 311 313 315
120 121 147 142 159 160 175 195 189 193 202 220 206 186 180 182 195 194 199 217 277 305 319 325 323 323 322 319 319 318 316 312 306 304 307 309 309 311 310 308 311 310 312 314
125 126 128 128 142 145 155 166 197 205 195 190 179 191 198 200 199 201 201 228 268 295 322 322 322 317 319 323 317 312 313 313 306 306 307 310 310 308 309 308 310 311 312 314
115 120 128 129 138 135 158 185 180 183 192 190 185 174 184 195 197 203 221 256 283 301 312 317 322 320 321 322 319 311 310 307 305 307 308 310 309 307 308 312 312 313 312 313
132 125 124 137 154 172 182 183 186 189 194 192 190 195 199 196 201 206 230 278 308 317 316 317 319 320 320 321 315 315 315 310 308 306 304 304 304 305 306 307 306 308 308 309
134 146 161 165 164 157 181 209 207 198 194 199 201 189 177 185 205 229 256 267 308 318 318 317 318 320 316 317 315 315 312 308 304 302 300 299 300 301 301 303 303 306 309 310
147 167 172 171 167 156 118 99 230 221 205 199 193 190 194 203 206 217 308 322 314 319 311 317 320 317 319 317 312 311 312 310 304 300 299 299 298 297 298 303 307 307 307 309
151 159 151 147 149 124 92 52 184 183 170 153 149 150 157 163 300 304 308 312 318 322 317 317 320 319 318 309 313 316 313 305 302 303 304 303 299 302 302 301 303 306 307 309
122 122 129 133 120 108 120 132 119 123 122 115 113 109 96 59 355 321 327 325 324 324 325 325 321 319 316 319 317 311 306 307 307 305 301 300 301 303 302 302 305 307 309 311
125 132 132 126 127 132 130 132 117 116 121 118 110 90 47 8 343 332 330 329 327 328 325 327 327 323 314 313 313 308 304 302 303 303 304 300 300 302 303 304 304 306 306 306
102 113 114 95 88 103 112 118 117 109 106 96 92 40 360 349 346 340 337 336 336 334 331 330 328 326 316 310 305 305 303 303 302 302 302 300 299 299 300 301 303 306 307 308